| time (UTC) | temp C | wind direction | speed KPH | gust KPH | rain 1hr cm | rain 24hr cm | rain mn cm | humidity % | barometer mb |
| 20260905143414 | 27 | 107 | 0.0 | 0.0 | 0.00 | 0.00 | 0.00 | ||
| 20260905141915 | 26 | 107 | 0.0 | 0.0 | 0.00 | 0.00 | 0.00 | ||
| 20260905140415 | 25 | 107 | 0.0 | 0.0 | 0.00 | 0.00 | 0.00 | ||
| 20260905134915 | 22 | 107 | 0.0 | 0.0 | 0.00 | 0.00 | 0.00 | ||
| 20260905133415 | 20 | 107 | 0.0 | 0.0 | 0.00 | 0.00 | 0.00 | ||
| 20260905131917 | 18 | 107 | 0.0 | 0.0 | 0.00 | 0.00 | 0.00 | ||
| 20260905130416 | 17 | 107 | 0.0 | 0.0 | 0.00 | 0.00 | 0.00 | ||
| 20260905123416 | 16 | 107 | 0.0 | 0.0 | 0.00 | 0.00 | 0.00 | ||
| 20260905120416 | 16 | 107 | 0.0 | 0.0 | 0.00 | 0.00 | 0.00 | ||
| 20260905114917 | 17 | 107 | 0.0 | 0.0 | 0.00 | 0.00 | 0.00 | ||
| 20260905111916 | 16 | 107 | 0.0 | 0.0 | 0.00 | 0.00 | 0.00 | ||
| 20260905110416 | 16 | 107 | 0.0 | 0.0 | 0.00 | 0.00 | 0.00 | ||
| 20260905104916 | 16 | 107 | 0.0 | 0.0 | 0.00 | 0.00 | 0.00 | ||
| 20260905103416 | 16 | 107 | 0.0 | 0.0 | 0.00 | 0.00 | 0.00 | ||
| 20260905101916 | 17 | 107 | 0.0 | 0.0 | 0.00 | 0.00 | 0.00 | ||
| 20260905100416 | 18 | 107 | 0.0 | 0.0 | 0.00 | 0.00 | 0.00 | ||
| 20260905094915 | 18 | 107 | 0.0 | 0.0 | 0.00 | 0.00 | 0.00 | ||
| 20260905093416 | 18 | 107 | 0.0 | 0.0 | 0.00 | 0.00 | 0.00 | ||
| 20260905091916 | 18 | 107 | 0.0 | 0.0 | 0.00 | 0.00 | 0.00 | ||
| 20260905090416 | 18 | 107 | 0.0 | 0.0 | 0.00 | 0.00 | 0.00 | ||
| 20260905084916 | 18 | 107 | 0.0 | 0.0 | 0.00 | 0.00 | 0.00 | ||
| 20260905083416 | 17 | 107 | 0.0 | 0.0 | 0.00 | 0.00 | 0.00 | ||
| 20260905081916 | 18 | 107 | 0.0 | 0.0 | 0.00 | 0.00 | 0.00 | ||
| 20260905080416 | 17 | 107 | 0.0 | 0.0 | 0.00 | 0.00 | 0.00 | ||
| 20260905074916 | 17 | 107 | 0.0 | 0.0 | 0.00 | 0.00 | 0.00 | ||
| 20260905073416 | 18 | 69 | 0.0 | 4.8 | 0.00 | 0.00 | 0.00 | ||
| 20260905071916 | 18 | 174 | 0.0 | 0.0 | 0.00 | 0.00 | 0.00 | ||
| 20260905070416 | 18 | 174 | 0.0 | 0.0 | 0.00 | 0.00 | 0.00 | ||
| 20260905064916 | 18 | 174 | 0.0 | 0.0 | 0.00 | 0.00 | 0.00 | ||
| 20260905063416 | 18 | 174 | 0.0 | 0.0 | 0.00 | 0.00 | 0.00 | ||
| 20260905061917 | 17 | 174 | 0.0 | 0.0 | 0.00 | 0.00 | 0.00 | ||
| 20260905060417 | 18 | 174 | 0.0 | 0.0 | 0.00 | 0.00 | 0.00 | ||
| 20260905054917 | 17 | 174 | 0.0 | 0.0 | 0.00 | 0.00 | 0.00 | ||
| 20260905053417 | 18 | 174 | 0.0 | 0.0 | 0.00 | 0.00 | 0.00 | ||
| 20260905051917 | 17 | 174 | 0.0 | 0.0 | 0.00 | 0.00 | 0.00 | ||
| 20260905050417 | 17 | 174 | 0.0 | 0.0 | 0.00 | 0.00 | 0.00 | ||
| 20260905044917 | 18 | 174 | 0.0 | 0.0 | 0.00 | 0.00 | 0.00 | ||
| 20260905043417 | 18 | 174 | 0.0 | 0.0 | 0.00 | 0.00 | 0.00 | ||
| 20260905041917 | 18 | 174 | 0.0 | 0.0 | 0.00 | 0.00 | 0.00 | ||
| 20260905040416 | 18 | 174 | 0.0 | 0.0 | 0.00 | 0.00 | 0.00 | ||
| 20260905034916 | 18 | 174 | 0.0 | 0.0 | 0.00 | 0.00 | 0.00 | ||
| 20260905033417 | 19 | 174 | 0.0 | 0.0 | 0.00 | 0.00 | 0.00 | ||
| 20260905031917 | 20 | 174 | 0.0 | 0.0 | 0.00 | 0.00 | 0.00 | ||
| 20260905030417 | 20 | 174 | 0.0 | 0.0 | 0.00 | 0.00 | 0.00 | ||
| 20260905024917 | 20 | 174 | 0.0 | 0.0 | 0.00 | 0.00 | 0.00 | ||
| 20260905023417 | 21 | 174 | 0.0 | 0.0 | 0.00 | 0.00 | 0.00 | ||
| 20260905021917 | 21 | 174 | 0.0 | 0.0 | 0.00 | 0.00 | 0.00 | ||
| 20260905020417 | 21 | 150 | 0.0 | 0.0 | 0.00 | 0.00 | 0.00 | ||
| 20260905014916 | 21 | 132 | 3.2 | 3.2 | 0.00 | 0.00 | 0.00 | ||
| 20260905013416 | 22 | 179 | 3.2 | 0.0 | 0.00 | 0.00 | 0.00 | ||
| 20260905011916 | 23 | 134 | 4.8 | 1.6 | 0.00 | 0.00 | 0.00 | ||
| 20260905010416 | 23 | 158 | 3.2 | 9.7 | 0.00 | 0.00 | 0.00 | ||
| 20260905004916 | 23 | 149 | 3.2 | 3.2 | 0.00 | 0.00 | 0.00 | ||
| 20260905001915 | 24 | 86 | 4.8 | 1.6 | 0.00 | 0.00 | 0.00 | ||
| 20260905000417 | 25 | 181 | 6.4 | 3.2 | 0.00 | 0.00 | 0.00 | ||
| 20260904234915 | 25 | 165 | 9.7 | 4.8 | 0.00 | 0.00 | 0.00 | ||
| 20260904233414 | 27 | 149 | 1.6 | 0.0 | 0.00 | 0.00 | 0.00 | ||
| 20260904231914 | 28 | 91 | 1.6 | 0.0 | 0.00 | 0.00 | 0.00 | ||
| 20260904230413 | 28 | 110 | 3.2 | 1.6 | 0.00 | 0.00 | 0.00 | ||
| 20260904224914 | 28 | 82 | 8.0 | 6.4 | 0.00 | 0.00 | 0.00 | ||
| 20260904220412 | 29 | 97 | 12.9 | 6.4 | 0.00 | 0.00 | 0.00 | ||
| 20260904214911 | 31 | 58 | 12.9 | 8.0 | 0.00 | 0.00 | 0.00 | ||
| 20260904211909 | 30 | 87 | 17.7 | 11.3 | 0.00 | 0.00 | 0.00 | ||
| 20260904210409 | 33 | 8 | 12.9 | 19.3 | 0.00 | 0.00 | 0.00 | ||
| 20260904204909 | 31 | 322 | 8.0 | 8.0 | 0.00 | 0.00 | 0.00 | ||
| 20260904203408 | 31 | 263 | 1.6 | 0.0 | 0.00 | 0.00 | 0.00 | ||
| 20260904201907 | 32 | 6 | 0.0 | 4.8 | 0.00 | 0.00 | 0.00 | ||
| 20260904200407 | 31 | 301 | 0.0 | 0.0 | 0.00 | 0.00 | 0.00 | ||
| 20260904194906 | 31 | 41 | 0.0 | 6.4 | 0.00 | 0.00 | 0.00 | ||
| 20260904193406 | 31 | 307 | 1.6 | 8.0 | 0.00 | 0.00 | 0.00 | ||
| 20260904191906 | 30 | 354 | 4.8 | 0.0 | 0.00 | 0.00 | 0.00 | ||
| 20260904190406 | 28 | 330 | 3.2 | 1.6 | 0.00 | 0.00 | 0.00 | ||
| 20260904184905 | 30 | 194 | 1.6 | 0.0 | 0.00 | 0.00 | 0.00 | ||
| 20260904181905 | 29 | 274 | 3.2 | 0.0 | 0.00 | 0.00 | 0.00 | ||
| 20260904180405 | 28 | 293 | 4.8 | 3.2 | 0.00 | 0.00 | 0.00 | ||
| 20260904174905 | 28 | 333 | 3.2 | 4.8 | 0.00 | 0.00 | 0.00 | ||
| 20260904173405 | 28 | 221 | 6.4 | 1.6 | 0.00 | 0.00 | 0.00 | ||
| 20260904171905 | 27 | 311 | 8.0 | 16.1 | 0.00 | 0.00 | 0.00 | ||
| 20260904170405 | 27 | 311 | 4.8 | 8.0 | 0.00 | 0.00 | 0.00 | ||
| 20260904164905 | 27 | 283 | 4.8 | 8.0 | 0.00 | 0.00 | 0.00 | ||
| 20260904163405 | 26 | 345 | 6.4 | 1.6 | 0.00 | 0.00 | 0.00 | ||
| 20260904161904 | 25 | 253 | 4.8 | 1.6 | 0.00 | 0.00 | 0.00 | ||
| 20260904153405 | 22 | 27 | 3.2 | 3.2 | 0.00 | 0.00 | 0.00 |